Location: Agendoh
(31.0664°N, 8.9343°W)
Time: 09:10:22
(UTC+00:00)

FALCON 9 R/B - Pass Details

Date: 06 December 2021
Orbit: 289 x 10023 km, 34.6° (Epoch: 24 January)

Event Time Altitude Azimuth Distance (km) Brightness Sun altitude
Exits shadow 06:12:57 15° 284° (WNW) 7,829 6.4 -14.2°
Maximum altitude 06:32:58 87° 14° (NNE) 1,761 3.8 -10.2°
Drops below altitude 10° 06:39:06 10° 105° (ESE) 2,613 6.4 -8.9°
Sets 06:40:38 0° 105° (ESE) 3,192 7.6 -8.6°
